This demonstration page uses our WeatherBlox Daily Observations layout. Learn more.

Left ArrowRight Arrow

34.74481, -87.66753

Hourly Observations for August 13, 2022

Temp ( °F °C ) Dew Point ( °F °C ) Humidity (%) Winds ( mph kmh ) Pressure ( in mb ) Visibility ( mi km ) Precip ( " mm )
12:53 am 00:53 Clear 71 21.7 63 17.2 76 76 NE 7 11 30.05 1018 10 16 0.00 0.00
1:53 am 01:53 Clear 71 21.7 63 17.2 76 76 NE 9 15 30.04 1017 10 16 0.00 0.00
2:53 am 02:53 Clear 70 21.1 63 17.2 78 78 NE 7 11 30.03 1017 10 16 0.00 0.00
3:53 am 03:53 Clear 68 20 62 16.7 81 81 Calm 30.03 1017 10 16 0.00 0.00
4:53 am 04:53 Clear 66 18.9 62 16.7 87 87 ENE 3 6 30.04 1017 10 16 0.00 0.00
5:53 am 05:53 Clear 65 18.3 61 16.1 87 87 Calm 30.05 1018 10 16 0.00 0.00
6:53 am 06:53 Sunny 67 19.4 63 17.2 87 87 Calm 30.06 1018 10 16 0.00 0.00
7:53 am 07:53 Sunny 71 21.7 63 17.2 76 76 Calm 30.07 1018 10 16 0.00 0.00
8:53 am 08:53 Sunny 74 23.3 64 17.8 71 71 ENE 3 6 30.09 1019 10 16 0.00 0.00
9:53 am 09:53 Sunny 77 25 65 18.3 66 66 Calm 30.09 1019 10 16 0.00 0.00
10:53 am 10:53 Sunny 81 27.2 64 17.8 57 57 SE 3 6 30.09 1019 10 16 0.00 0.00
11:53 am 11:53 Sunny 84 28.9 61 16.1 46 46 undefined N/A 30.08 1019 10 16 0.00 0.00
12:53 pm 12:53 Sunny 85 29.4 61 16.1 45 45 Calm 30.06 1018 10 16 0.00 0.00
1:53 pm 13:53 Sunny 88 31.1 61 16.1 41 41 N 5 7 30.04 1017 10 16 0.00 0.00
2:53 pm 14:53 Sunny 87 30.6 61 16.1 42 42 ENE 6 9 30.03 1017 8 13 0.00 0.00
3:53 pm 15:53 Sunny 87 30.6 60 15.6 40 40 ENE 7 11 30.02 1017 10 16 0.00 0.00
4:53 pm 16:53 Sunny 88 31.1 59 15 38 38 E 5 7 30.01 1016 10 16 0.00 0.00
5:53 pm 17:53 Sunny 87 30.6 59 15 39 39 Calm 30.00 1016 10 16 0.00 0.00
6:53 pm 18:53 Sunny 84 28.9 64 17.8 51 51 Calm 29.99 1016 10 16 0.00 0.00
7:53 pm 19:53 Clear 74 23.3 64 17.8 71 71 Calm 30.00 1016 10 16 0.00 0.00
8:53 pm 20:53 Clear 72 22.2 65 18.3 79 79 Calm 30.02 1017 10 16 0.00 0.00
9:53 pm 21:53 Clear 70 21.1 65 18.3 84 84 Calm 30.03 1017 10 16 0.00 0.00
10:53 pm 22:53 Clear 68 20 65 18.3 90 90 Calm 30.02 1017 10 16 0.00 0.00
11:53 pm 23:53 Clear 67 19.4 64 17.8 90 90 Calm 30.02 1017 10 16 0.00 0.00

Powered by AerisWeather